MZT YMMB-YMMB

Flight info

Callsign MZT
Flight time 2h 9m
Altitude 2500
Route N0110A020 DCT DSN/N0110A015 DCT YMEN DCT YYN/N0110A025 DCT KIM/N0110A025 DCT YMNG/N0110A035 DCT YSHT/N0110A055 DCT YECH/N0110A065 DCT YKTN/N0110A045 DCT WBER/N0110A015 DCT
Aircraft C172/L-SFG/C

Departure

Time 2026-04-23 06:12
Airport Melbourne Moorabbin Airport (YMMB)

Arrival

Time 2026-04-23 08:22
Airport Melbourne Moorabbin Airport (YMMB)
Time Latitude Longitude Altitude Speed Heading
2026-04-23 06:03 -37.97848 145.09531 45 ft 0 kts 12°
2026-04-23 06:05 -37.97837 145.09529 45 ft 6 kts 331°
2026-04-23 06:05 -37.97788 145.09489 46 ft 12 kts
2026-04-23 06:05 -37.97693 145.09520 47 ft 14 kts 60°
2026-04-23 06:06 -37.97619 145.09566 48 ft 14 kts 356°
2026-04-23 06:06 -37.97527 145.09558 50 ft 12 kts 358°
2026-04-23 06:06 -37.97496 145.09579 51 ft 4 kts 61°
2026-04-23 06:06 -37.97482 145.09589 50 ft 0 kts 70°
2026-04-23 06:07 -37.97482 145.09591 50 ft 1 kts 128°
2026-04-23 06:07 -37.97483 145.09592 50 ft 0 kts 142°
2026-04-23 06:08 -37.97487 145.09603 50 ft 5 kts 91°
2026-04-23 06:08 -37.97468 145.09618 50 ft 3 kts 360°
2026-04-23 06:08 -37.97440 145.09618 51 ft 5 kts 346°
2026-04-23 06:08 -37.97431 145.09589 51 ft 5 kts 273°
2026-04-23 06:09 -37.97424 145.09535 51 ft 8 kts 281°
2026-04-23 06:09 -37.97411 145.09466 51 ft 3 kts 327°
2026-04-23 06:09 -37.97385 145.09464 51 ft 5 kts
2026-04-23 06:09 -37.97343 145.09472 52 ft 7 kts
2026-04-23 06:10 -37.97289 145.09482 52 ft 9 kts
2026-04-23 06:10 -37.97227 145.09503 53 ft 10 kts 35°
2026-04-23 06:10 -37.97173 145.09564 54 ft 11 kts 42°
2026-04-23 06:10 -37.97132 145.09650 54 ft 13 kts 85°
2026-04-23 06:11 -37.97128 145.09768 54 ft 14 kts 99°
2026-04-23 06:11 -37.97178 145.09860 53 ft 12 kts 92°
2026-04-23 06:11 -37.97209 145.09934 53 ft 12 kts 174°
2026-04-23 06:11 -37.97458 145.09953 50 ft 60 kts 177°
2026-04-23 06:12 -37.97965 145.10001 155 ft 78 kts 173°
2026-04-23 06:12 -37.98495 145.10097 407 ft 75 kts 173°
2026-04-23 06:12 -37.99319 145.10814 780 ft 83 kts 101°
2026-04-23 06:13 -37.99369 145.11569 949 ft 90 kts 89°
2026-04-23 06:13 -37.99026 145.12179 1114 ft 97 kts 19°
2026-04-23 06:13 -37.98340 145.12261 1278 ft 103 kts
2026-04-23 06:13 -37.97667 145.12259 1651 ft 86 kts
2026-04-23 06:14 -37.97106 145.12252 1965 ft 79 kts
2026-04-23 06:14 -37.96477 145.12262 2010 ft 100 kts
2026-04-23 06:14 -37.95726 145.12268 2019 ft 115 kts
2026-04-23 06:14 -37.94942 145.12287 2010 ft 113 kts
2026-04-23 06:15 -37.94159 145.12301 2007 ft 113 kts
2026-04-23 06:15 -37.93382 145.12311 2003 ft 111 kts
2026-04-23 06:15 -37.92622 145.12319 2002 ft 109 kts
2026-04-23 06:15 -37.91868 145.12330 2006 ft 107 kts
2026-04-23 06:16 -37.91132 145.12335 1995 ft 105 kts
2026-04-23 06:16 -37.90403 145.12346 2003 ft 103 kts
2026-04-23 06:16 -37.89700 145.12358 1878 ft 102 kts
2026-04-23 06:16 -37.88983 145.12372 1729 ft 103 kts
2026-04-23 06:17 -37.88278 145.12382 1544 ft 103 kts
2026-04-23 06:17 -37.87564 145.12388 1514 ft 103 kts
2026-04-23 06:17 -37.86880 145.12581 1515 ft 101 kts 24°
2026-04-23 06:17 -37.86216 145.12877 1512 ft 101 kts 22°
2026-04-23 06:18 -37.85556 145.13175 1511 ft 101 kts 21°
2026-04-23 06:18 -37.84893 145.13477 1515 ft 103 kts 21°
2026-04-23 06:18 -37.84210 145.13791 1516 ft 105 kts 22°
2026-04-23 06:18 -37.83518 145.14103 1517 ft 106 kts 22°
2026-04-23 06:19 -37.82814 145.14421 1513 ft 108 kts 21°
2026-04-23 06:19 -37.82111 145.14735 1515 ft 106 kts 18°
2026-04-23 06:19 -37.81400 145.14576 1498 ft 107 kts 333°
2026-04-23 06:19 -37.80750 145.14120 1503 ft 107 kts 335°
2026-04-23 06:20 -37.80083 145.13673 1502 ft 109 kts 334°
2026-04-23 06:20 -37.79411 145.13221 1501 ft 109 kts 335°
2026-04-23 06:20 -37.78746 145.12775 1501 ft 108 kts 334°
2026-04-23 06:20 -37.78231 145.12094 1498 ft 113 kts 295°
2026-04-23 06:21 -37.77999 145.11147 1501 ft 112 kts 289°
2026-04-23 06:21 -37.77765 145.10205 1503 ft 112 kts 289°
2026-04-23 06:21 -37.77533 145.09260 1508 ft 113 kts 289°
2026-04-23 06:21 -37.77296 145.08302 1511 ft 115 kts 289°
2026-04-23 06:22 -37.77057 145.07330 1508 ft 116 kts 289°
2026-04-23 06:22 -37.76818 145.06367 1508 ft 114 kts 289°
2026-04-23 06:22 -37.76582 145.05414 1506 ft 113 kts 290°
2026-04-23 06:22 -37.76347 145.04463 1506 ft 113 kts 289°
2026-04-23 06:23 -37.76112 145.03513 1508 ft 113 kts 289°
2026-04-23 06:23 -37.75877 145.02568 1506 ft 113 kts 290°
2026-04-23 06:23 -37.75641 145.01617 1508 ft 114 kts 289°
2026-04-23 06:23 -37.75405 145.00658 1509 ft 114 kts 289°
2026-04-23 06:24 -37.75168 144.99701 1508 ft 114 kts 289°
2026-04-23 06:24 -37.74931 144.98748 1510 ft 113 kts 290°
2026-04-23 06:24 -37.74696 144.97821 1365 ft 112 kts 290°
2026-04-23 06:24 -37.74459 144.96877 1202 ft 113 kts 290°
2026-04-23 06:25 -37.74222 144.95926 1035 ft 114 kts 290°
2026-04-23 06:25 -37.73827 144.95161 1009 ft 102 kts 332°
2026-04-23 06:25 -37.73222 144.94688 1005 ft 102 kts 331°
2026-04-23 06:25 -37.72628 144.94208 1001 ft 100 kts 331°
2026-04-23 06:26 -37.72047 144.93743 999 ft 99 kts 332°
2026-04-23 06:26 -37.71470 144.93285 999 ft 100 kts 332°
2026-04-23 06:26 -37.70875 144.92813 999 ft 101 kts 331°
2026-04-23 06:26 -37.70466 144.92190 1020 ft 91 kts 294°
2026-04-23 06:27 -37.70335 144.91444 1002 ft 89 kts 270°
2026-04-23 06:27 -37.70426 144.90699 996 ft 84 kts 256°
2026-04-23 06:27 -37.70738 144.90099 925 ft 85 kts 206°
2026-04-23 06:27 -37.71298 144.90009 660 ft 82 kts 173°
2026-04-23 06:28 -37.71866 144.90054 390 ft 82 kts 173°
2026-04-23 06:28 -37.72394 144.90087 274 ft 66 kts 174°
2026-04-23 06:28 -37.72758 144.90109 253 ft 28 kts 179°
2026-04-23 06:28 -37.72806 144.90095 253 ft 3 kts 266°
2026-04-23 06:29 -37.72783 144.90035 254 ft 9 kts 266°
2026-04-23 06:29 -37.72758 144.89991 256 ft 6 kts 351°
2026-04-23 06:29 -37.72727 144.89988 256 ft 6 kts 357°
2026-04-23 06:29 -37.72658 144.89983 259 ft 11 kts 358°
2026-04-23 06:30 -37.72594 144.89982 263 ft 9 kts 356°
2026-04-23 06:30 -37.72534 144.89979 266 ft 9 kts 359°
2026-04-23 06:30 -37.72458 144.89976 269 ft 14 kts 360°
2026-04-23 06:30 -37.72376 144.89975 272 ft 9 kts 22°
2026-04-23 06:31 -37.72355 144.90046 272 ft 11 kts 91°
2026-04-23 06:31 -37.72419 144.90095 270 ft 27 kts 178°
2026-04-23 06:31 -37.72782 144.90109 255 ft 74 kts 173°
2026-04-23 06:31 -37.73337 144.90155 433 ft 81 kts 174°
2026-04-23 06:32 -37.73894 144.90225 644 ft 80 kts 159°
2026-04-23 06:32 -37.74284 144.90715 785 ft 84 kts 103°
2026-04-23 06:32 -37.74292 144.91457 988 ft 86 kts 82°
2026-04-23 06:32 -37.74218 144.92221 1138 ft 90 kts 79°
2026-04-23 06:33 -37.74117 144.93003 1339 ft 89 kts 81°
2026-04-23 06:33 -37.73773 144.93622 1499 ft 93 kts 38°
2026-04-23 06:33 -37.73236 144.94201 1510 ft 109 kts 43°
2026-04-23 06:33 -37.72654 144.94857 1507 ft 111 kts 43°
2026-04-23 06:34 -37.72092 144.95493 1509 ft 107 kts 43°
2026-04-23 06:34 -37.71537 144.96118 1503 ft 106 kts 43°
2026-04-23 06:34 -37.70999 144.96724 1503 ft 104 kts 43°
2026-04-23 06:34 -37.70454 144.97341 1505 ft 106 kts 43°
2026-04-23 06:35 -37.69903 144.97965 1506 ft 106 kts 43°
2026-04-23 06:35 -37.69353 144.98586 1505 ft 106 kts 43°
2026-04-23 06:35 -37.68806 144.99203 1505 ft 105 kts 43°
2026-04-23 06:35 -37.68262 144.99819 1501 ft 105 kts 43°
2026-04-23 06:36 -37.67715 145.00436 1499 ft 106 kts 43°
2026-04-23 06:36 -37.67166 145.01058 1498 ft 106 kts 43°
2026-04-23 06:36 -37.66619 145.01675 1500 ft 105 kts 43°
2026-04-23 06:36 -37.66071 145.02293 1500 ft 105 kts 43°
2026-04-23 06:37 -37.65531 145.02903 1499 ft 104 kts 43°
2026-04-23 06:37 -37.64991 145.03512 1495 ft 104 kts 43°
2026-04-23 06:37 -37.64450 145.04122 1500 ft 105 kts 43°
2026-04-23 06:37 -37.63905 145.04738 1502 ft 106 kts 43°
2026-04-23 06:38 -37.63362 145.05350 1529 ft 101 kts 43°
2026-04-23 06:38 -37.62876 145.05887 1809 ft 86 kts 41°
2026-04-23 06:38 -37.62424 145.06388 2002 ft 87 kts 42°
2026-04-23 06:38 -37.61970 145.06898 2249 ft 87 kts 43°
2026-04-23 06:39 -37.61514 145.07413 2481 ft 90 kts 43°
2026-04-23 06:39 -37.61003 145.07991 2517 ft 106 kts 43°
2026-04-23 06:39 -37.60431 145.08646 2513 ft 113 kts 43°
2026-04-23 06:39 -37.59854 145.09303 2513 ft 111 kts 43°
2026-04-23 06:40 -37.59285 145.09947 2510 ft 111 kts 43°
2026-04-23 06:40 -37.58710 145.10594 2512 ft 111 kts 42°
2026-04-23 06:40 -37.58139 145.11238 2512 ft 109 kts 43°
2026-04-23 06:40 -37.57579 145.11869 2508 ft 107 kts 43°
2026-04-23 06:41 -37.57021 145.12494 2505 ft 106 kts 42°
2026-04-23 06:41 -37.56474 145.13109 2503 ft 105 kts 43°
2026-04-23 06:41 -37.55828 145.13514 2491 ft 106 kts
2026-04-23 06:41 -37.55115 145.13330 2488 ft 107 kts 333°
2026-04-23 06:42 -37.54472 145.12861 2497 ft 107 kts 333°
2026-04-23 06:42 -37.53819 145.12399 2501 ft 109 kts 333°
2026-04-23 06:42 -37.53146 145.11920 2507 ft 112 kts 333°
2026-04-23 06:42 -37.52468 145.11438 2509 ft 112 kts 332°
2026-04-23 06:43 -37.51796 145.10960 2508 ft 110 kts 332°
2026-04-23 06:43 -37.51130 145.10486 2509 ft 110 kts 332°
2026-04-23 06:43 -37.50466 145.10013 2506 ft 109 kts 332°
2026-04-23 06:43 -37.49812 145.09548 2506 ft 109 kts 332°
2026-04-23 06:44 -37.49151 145.09078 2508 ft 109 kts 332°
2026-04-23 06:44 -37.48488 145.08607 2506 ft 109 kts 332°
2026-04-23 06:44 -37.47830 145.08138 2503 ft 108 kts 333°
2026-04-23 06:44 -37.47180 145.07676 2502 ft 107 kts 332°
2026-04-23 06:45 -37.46536 145.07217 2500 ft 106 kts 332°
2026-04-23 06:45 -37.45892 145.06760 2501 ft 106 kts 332°
2026-04-23 06:45 -37.45245 145.06301 2502 ft 107 kts 332°
2026-04-23 06:45 -37.44598 145.05841 2503 ft 107 kts 332°
2026-04-23 06:46 -37.44170 145.05537 2504 ft 106 kts 332°
2026-04-23 06:46 -37.43524 145.05079 2503 ft 107 kts 333°
2026-04-23 06:46 -37.42660 145.04466 2505 ft 106 kts 332°
2026-04-23 06:46 -37.42232 145.04162 2505 ft 107 kts 333°
2026-04-23 06:47 -37.41590 145.03707 2502 ft 105 kts 332°
2026-04-23 06:47 -37.40952 145.03254 2502 ft 105 kts 333°
2026-04-23 06:47 -37.40314 145.02801 2500 ft 105 kts 332°
2026-04-23 06:47 -37.39457 145.02194 2505 ft 106 kts 333°
2026-04-23 06:48 -37.39033 145.01894 2502 ft 105 kts 332°
2026-04-23 06:48 -37.38391 145.01438 2503 ft 106 kts 333°
2026-04-23 06:48 -37.37747 145.00983 2506 ft 106 kts 332°
2026-04-23 06:48 -37.37103 145.00526 2507 ft 106 kts 332°
2026-04-23 06:49 -37.36459 145.00070 2507 ft 106 kts 332°
2026-04-23 06:49 -37.35816 144.99614 2513 ft 106 kts 332°
2026-04-23 06:49 -37.35178 144.99163 2513 ft 107 kts 332°
2026-04-23 06:49 -37.34528 144.98702 2513 ft 108 kts 332°
2026-04-23 06:50 -37.33875 144.98241 2513 ft 107 kts 332°
2026-04-23 06:50 -37.33224 144.97781 2516 ft 108 kts 332°
2026-04-23 06:50 -37.32567 144.97316 2515 ft 108 kts 332°
2026-04-23 06:50 -37.31949 144.96876 2659 ft 95 kts 332°
2026-04-23 06:51 -37.31373 144.96466 2692 ft 96 kts 333°
2026-04-23 06:51 -37.30786 144.96049 2782 ft 98 kts 332°
2026-04-23 06:51 -37.30195 144.95661 3006 ft 95 kts 344°
2026-04-23 06:51 -37.29545 144.95733 3197 ft 96 kts 24°
2026-04-23 06:52 -37.28932 144.96084 3383 ft 97 kts 24°
2026-04-23 06:52 -37.28303 144.96433 3507 ft 104 kts 24°
2026-04-23 06:52 -37.27604 144.96829 3523 ft 116 kts 25°
2026-04-23 06:52 -37.26845 144.97257 3522 ft 122 kts 25°
2026-04-23 06:53 -37.26059 144.97700 3520 ft 125 kts 25°
2026-04-23 06:53 -37.25262 144.98148 3524 ft 124 kts 25°
2026-04-23 06:53 -37.24472 144.98484 3524 ft 118 kts 359°
2026-04-23 06:53 -37.23814 144.97969 3506 ft 118 kts 303°
2026-04-23 06:54 -37.23401 144.97092 3511 ft 116 kts 302°
2026-04-23 06:54 -37.22989 144.96223 3512 ft 116 kts 301°
2026-04-23 06:54 -37.22578 144.95357 3515 ft 115 kts 302°
2026-04-23 06:54 -37.22167 144.94490 3518 ft 115 kts 301°
2026-04-23 06:55 -37.21757 144.93626 3521 ft 115 kts 301°
2026-04-23 06:55 -37.21348 144.92762 3523 ft 115 kts 301°
2026-04-23 06:55 -37.20965 144.91944 3790 ft 99 kts 301°
2026-04-23 06:55 -37.20639 144.91234 4028 ft 93 kts 301°
2026-04-23 06:56 -37.20314 144.90520 4201 ft 95 kts 301°
2026-04-23 06:56 -37.19992 144.89800 4380 ft 95 kts 301°
2026-04-23 06:56 -37.19661 144.89059 4512 ft 103 kts 301°
2026-04-23 06:56 -37.19283 144.88231 4525 ft 113 kts 302°
2026-04-23 06:57 -37.18882 144.87367 4522 ft 116 kts 301°
2026-04-23 06:57 -37.18478 144.86490 4519 ft 119 kts 301°
2026-04-23 06:57 -37.18059 144.85584 4527 ft 120 kts 302°
2026-04-23 06:57 -37.17638 144.84673 4522 ft 120 kts 302°
2026-04-23 06:58 -37.17224 144.83770 4522 ft 119 kts 301°
2026-04-23 06:58 -37.16809 144.82864 4520 ft 121 kts 301°
2026-04-23 06:58 -37.16384 144.81950 4512 ft 121 kts 302°
2026-04-23 06:58 -37.15961 144.81039 4520 ft 121 kts 302°
2026-04-23 06:59 -37.15539 144.80118 4517 ft 122 kts 301°
2026-04-23 06:59 -37.15118 144.79196 4520 ft 121 kts 301°
2026-04-23 06:59 -37.14701 144.78278 4518 ft 122 kts 301°
2026-04-23 06:59 -37.14276 144.77347 4516 ft 124 kts 302°
2026-04-23 07:00 -37.13849 144.76408 4521 ft 124 kts 301°
2026-04-23 07:00 -37.13426 144.75474 4520 ft 123 kts 301°
2026-04-23 07:00 -37.13002 144.74542 4513 ft 123 kts 301°
2026-04-23 07:00 -37.12588 144.73633 4510 ft 121 kts 301°
2026-04-23 07:01 -37.12167 144.72699 4511 ft 121 kts 299°
2026-04-23 07:01 -37.12163 144.71682 4510 ft 121 kts 243°
2026-04-23 07:01 -37.12570 144.70764 4511 ft 121 kts 241°
2026-04-23 07:01 -37.12945 144.69836 4516 ft 121 kts 243°
2026-04-23 07:02 -37.13315 144.68892 4518 ft 121 kts 243°
2026-04-23 07:02 -37.13679 144.67949 4516 ft 120 kts 243°
2026-04-23 07:02 -37.14037 144.67011 4517 ft 119 kts 244°
2026-04-23 07:02 -37.14396 144.66068 4516 ft 120 kts 244°
2026-04-23 07:03 -37.14755 144.65124 4517 ft 120 kts 244°
2026-04-23 07:03 -37.15114 144.64179 4517 ft 120 kts 244°
2026-04-23 07:03 -37.15471 144.63239 4515 ft 119 kts 244°
2026-04-23 07:03 -37.15826 144.62304 4515 ft 119 kts 244°
2026-04-23 07:04 -37.16182 144.61365 4515 ft 120 kts 244°
2026-04-23 07:04 -37.16541 144.60422 4517 ft 120 kts 244°
2026-04-23 07:04 -37.16899 144.59477 4518 ft 120 kts 244°
2026-04-23 07:04 -37.17258 144.58531 4518 ft 120 kts 244°
2026-04-23 07:05 -37.17611 144.57598 4517 ft 119 kts 244°
2026-04-23 07:05 -37.17967 144.56658 4517 ft 120 kts 244°
2026-04-23 07:05 -37.18325 144.55716 4520 ft 120 kts 244°
2026-04-23 07:05 -37.18682 144.54771 4514 ft 120 kts 244°
2026-04-23 07:06 -37.19039 144.53831 4514 ft 120 kts 244°
2026-04-23 07:06 -37.19399 144.52881 4515 ft 121 kts 244°
2026-04-23 07:06 -37.19759 144.51929 4516 ft 121 kts 244°
2026-04-23 07:06 -37.20118 144.50980 4517 ft 121 kts 244°
2026-04-23 07:07 -37.20476 144.50031 4509 ft 120 kts 244°
2026-04-23 07:07 -37.20834 144.49088 4514 ft 119 kts 244°
2026-04-23 07:07 -37.21189 144.48148 4511 ft 119 kts 244°
2026-04-23 07:07 -37.21541 144.47214 4508 ft 119 kts 244°
2026-04-23 07:08 -37.21896 144.46276 4511 ft 119 kts 244°
2026-04-23 07:08 -37.22306 144.45384 4503 ft 118 kts 224°
2026-04-23 07:08 -37.23020 144.44935 4499 ft 115 kts 187°
2026-04-23 07:08 -37.23789 144.45040 4499 ft 113 kts 164°
2026-04-23 07:09 -37.24557 144.45263 4502 ft 114 kts 166°
2026-04-23 07:09 -37.25328 144.45482 4504 ft 113 kts 166°
2026-04-23 07:09 -37.26099 144.45703 4506 ft 114 kts 166°
2026-04-23 07:09 -37.26877 144.45926 4507 ft 114 kts 166°
2026-04-23 07:10 -37.27649 144.46146 4507 ft 114 kts 166°
2026-04-23 07:10 -37.28422 144.46368 4508 ft 114 kts 166°
2026-04-23 07:10 -37.29198 144.46591 4507 ft 115 kts 166°
2026-04-23 07:10 -37.29980 144.46815 4511 ft 115 kts 166°
2026-04-23 07:11 -37.30760 144.47038 4508 ft 114 kts 166°
2026-04-23 07:11 -37.31538 144.47261 4507 ft 115 kts 166°
2026-04-23 07:11 -37.32306 144.47482 4505 ft 115 kts 166°
2026-04-23 07:12 -37.33866 144.47929 4510 ft 115 kts 166°
2026-04-23 07:12 -37.34651 144.48155 4509 ft 115 kts 166°
2026-04-23 07:12 -37.35435 144.48380 4508 ft 116 kts 166°
2026-04-23 07:12 -37.36223 144.48605 4513 ft 116 kts 166°
2026-04-23 07:13 -37.37008 144.48831 4506 ft 114 kts 166°
2026-04-23 07:13 -37.37759 144.49041 4374 ft 108 kts 167°
2026-04-23 07:13 -37.38521 144.49249 3989 ft 113 kts 167°
2026-04-23 07:13 -37.39305 144.49468 3444 ft 125 kts 168°
2026-04-23 07:14 -37.40191 144.49718 2935 ft 129 kts 167°
2026-04-23 07:14 -37.40984 144.49953 2895 ft 107 kts 167°
2026-04-23 07:14 -37.41701 144.50172 2878 ft 108 kts 166°
2026-04-23 07:14 -37.42453 144.50398 2902 ft 114 kts 166°
2026-04-23 07:15 -37.43214 144.50620 3001 ft 113 kts 167°
2026-04-23 07:15 -37.43984 144.50839 3002 ft 114 kts 167°
2026-04-23 07:15 -37.44764 144.51064 3007 ft 116 kts 167°
2026-04-23 07:15 -37.45550 144.51290 3007 ft 116 kts 167°
2026-04-23 07:16 -37.46336 144.51515 3008 ft 116 kts 166°
2026-04-23 07:16 -37.47109 144.51738 3008 ft 115 kts 167°
2026-04-23 07:16 -37.47892 144.51964 3009 ft 116 kts 167°
2026-04-23 07:16 -37.48678 144.52190 3010 ft 116 kts 167°
2026-04-23 07:17 -37.49463 144.52416 3012 ft 116 kts 166°
2026-04-23 07:17 -37.50249 144.52643 3006 ft 116 kts 166°
2026-04-23 07:17 -37.51035 144.52870 3010 ft 116 kts 166°
2026-04-23 07:17 -37.51822 144.53097 3011 ft 116 kts 166°
2026-04-23 07:18 -37.52615 144.53325 3006 ft 117 kts 166°
2026-04-23 07:18 -37.53410 144.53554 3005 ft 117 kts 166°
2026-04-23 07:18 -37.54201 144.53782 3007 ft 116 kts 166°
2026-04-23 07:18 -37.54995 144.54012 2918 ft 122 kts 166°
2026-04-23 07:19 -37.55868 144.54257 2609 ft 126 kts 167°
2026-04-23 07:19 -37.56659 144.54473 2491 ft 110 kts 165°
2026-04-23 07:19 -37.57393 144.54698 2488 ft 111 kts 165°
2026-04-23 07:19 -37.58155 144.54924 2487 ft 114 kts 165°
2026-04-23 07:20 -37.58929 144.55149 2488 ft 114 kts 166°
2026-04-23 07:20 -37.59702 144.55379 2489 ft 114 kts 160°
2026-04-23 07:20 -37.60370 144.55891 2490 ft 112 kts 142°
2026-04-23 07:20 -37.61021 144.56431 2494 ft 112 kts 145°
2026-04-23 07:21 -37.61683 144.56962 2498 ft 113 kts 145°
2026-04-23 07:21 -37.62350 144.57488 2499 ft 112 kts 146°
2026-04-23 07:21 -37.62994 144.57993 2564 ft 108 kts 145°
2026-04-23 07:21 -37.63635 144.58494 2565 ft 109 kts 146°
2026-04-23 07:22 -37.64277 144.58992 2559 ft 107 kts 146°
2026-04-23 07:22 -37.64907 144.59486 2523 ft 110 kts 144°
2026-04-23 07:22 -37.65565 144.60005 2596 ft 115 kts 145°
2026-04-23 07:22 -37.66273 144.60556 2604 ft 123 kts 146°
2026-04-23 07:23 -37.67011 144.61128 2606 ft 124 kts 146°
2026-04-23 07:23 -37.67723 144.61673 2602 ft 114 kts 146°
2026-04-23 07:23 -37.68380 144.62183 2587 ft 108 kts 146°
2026-04-23 07:23 -37.69008 144.62675 2584 ft 104 kts 146°
2026-04-23 07:24 -37.69618 144.63156 2587 ft 104 kts 146°
2026-04-23 07:24 -37.70235 144.63639 2586 ft 105 kts 145°
2026-04-23 07:24 -37.70855 144.64125 2591 ft 106 kts 145°
2026-04-23 07:24 -37.71487 144.64617 2592 ft 108 kts 145°
2026-04-23 07:25 -37.72123 144.65114 2601 ft 109 kts 144°
2026-04-23 07:25 -37.72775 144.65621 2605 ft 111 kts 145°
2026-04-23 07:25 -37.73432 144.66134 2602 ft 111 kts 145°
2026-04-23 07:25 -37.74086 144.66645 2600 ft 110 kts 146°
2026-04-23 07:26 -37.74737 144.67153 2601 ft 110 kts 146°
2026-04-23 07:26 -37.75387 144.67661 2600 ft 110 kts 145°
2026-04-23 07:26 -37.76036 144.68170 2601 ft 110 kts 145°
2026-04-23 07:26 -37.76694 144.68683 2601 ft 112 kts 146°
2026-04-23 07:27 -37.77358 144.69201 2602 ft 112 kts 145°
2026-04-23 07:27 -37.78017 144.69717 2601 ft 111 kts 146°
2026-04-23 07:27 -37.78674 144.70231 2599 ft 110 kts 146°
2026-04-23 07:27 -37.79316 144.70734 2596 ft 108 kts 145°
2026-04-23 07:28 -37.79956 144.71235 2595 ft 109 kts 146°
2026-04-23 07:28 -37.80592 144.71734 2593 ft 109 kts 145°
2026-04-23 07:28 -37.81238 144.72241 2596 ft 110 kts 145°
2026-04-23 07:28 -37.81892 144.72752 2597 ft 111 kts 145°
2026-04-23 07:29 -37.82547 144.73265 2597 ft 111 kts 145°
2026-04-23 07:29 -37.83204 144.73779 2597 ft 111 kts 146°
2026-04-23 07:29 -37.83857 144.74291 2598 ft 110 kts 146°
2026-04-23 07:29 -37.84508 144.74801 2598 ft 110 kts 146°
2026-04-23 07:30 -37.85161 144.75313 2598 ft 111 kts 146°
2026-04-23 07:30 -37.85815 144.75825 2597 ft 110 kts 146°
2026-04-23 07:30 -37.86464 144.76335 2595 ft 110 kts 145°
2026-04-23 07:30 -37.87113 144.76844 2594 ft 110 kts 146°
2026-04-23 07:31 -37.87761 144.77353 2596 ft 110 kts 146°
2026-04-23 07:31 -37.88413 144.77865 2596 ft 110 kts 146°
2026-04-23 07:31 -37.89058 144.78370 2594 ft 110 kts 146°
2026-04-23 07:31 -37.89718 144.78889 2596 ft 110 kts 146°
2026-04-23 07:32 -37.90364 144.79396 2597 ft 111 kts 145°
2026-04-23 07:32 -37.91025 144.79916 2602 ft 112 kts 146°
2026-04-23 07:32 -37.91688 144.80436 2599 ft 111 kts 146°
2026-04-23 07:32 -37.92345 144.80952 2600 ft 111 kts 146°
2026-04-23 07:33 -37.93004 144.81470 2599 ft 111 kts 146°
2026-04-23 07:33 -37.93660 144.81986 2602 ft 111 kts 146°
2026-04-23 07:33 -37.94316 144.82502 2598 ft 110 kts 146°
2026-04-23 07:33 -37.94964 144.83012 2594 ft 110 kts 146°
2026-04-23 07:34 -37.95610 144.83521 2595 ft 109 kts 146°
2026-04-23 07:34 -37.96256 144.84029 2593 ft 109 kts 146°
2026-04-23 07:34 -37.96903 144.84538 2593 ft 110 kts 146°
2026-04-23 07:34 -37.97553 144.85050 2592 ft 110 kts 146°
2026-04-23 07:35 -37.98207 144.85565 2595 ft 111 kts 146°
2026-04-23 07:35 -37.98862 144.86080 2597 ft 111 kts 146°
2026-04-23 07:35 -37.99517 144.86596 2595 ft 111 kts 146°
2026-04-23 07:35 -38.00170 144.87110 2597 ft 111 kts 146°
2026-04-23 07:36 -38.00602 144.87451 2597 ft 110 kts 146°
2026-04-23 07:36 -38.01252 144.87963 2595 ft 110 kts 146°
2026-04-23 07:36 -38.01901 144.88475 2596 ft 110 kts 146°
2026-04-23 07:36 -38.02762 144.89154 2596 ft 110 kts 146°
2026-04-23 07:37 -38.03411 144.89666 2594 ft 110 kts 146°
2026-04-23 07:37 -38.04063 144.90180 2595 ft 111 kts 146°
2026-04-23 07:37 -38.04504 144.90528 2596 ft 110 kts 146°
2026-04-23 07:37 -38.05155 144.91042 2597 ft 110 kts 146°
2026-04-23 07:38 -38.05797 144.91548 2595 ft 110 kts 146°
2026-04-23 07:38 -38.06447 144.92061 2594 ft 110 kts 146°
2026-04-23 07:38 -38.07095 144.92574 2594 ft 110 kts 146°
2026-04-23 07:38 -38.07745 144.93087 2595 ft 110 kts 146°
2026-04-23 07:39 -38.08395 144.93600 2593 ft 110 kts 146°
2026-04-23 07:39 -38.09045 144.94114 2594 ft 110 kts 146°
2026-04-23 07:39 -38.09699 144.94631 2596 ft 110 kts 146°
2026-04-23 07:39 -38.10351 144.95145 2595 ft 110 kts 146°
2026-04-23 07:40 -38.10999 144.95658 2593 ft 109 kts 146°
2026-04-23 07:40 -38.11644 144.96168 2591 ft 109 kts 146°
2026-04-23 07:40 -38.12289 144.96679 2592 ft 109 kts 146°
2026-04-23 07:40 -38.12935 144.97190 2591 ft 109 kts 146°
2026-04-23 07:41 -38.13584 144.97703 2593 ft 110 kts 146°
2026-04-23 07:41 -38.14238 144.98221 2594 ft 111 kts 146°
2026-04-23 07:41 -38.14884 144.98732 2596 ft 111 kts 146°
2026-04-23 07:41 -38.15541 144.99251 2597 ft 111 kts 146°
2026-04-23 07:42 -38.16195 144.99770 2596 ft 110 kts 146°
2026-04-23 07:42 -38.16847 145.00286 2594 ft 110 kts 146°
2026-04-23 07:42 -38.17496 145.00801 2598 ft 110 kts 146°
2026-04-23 07:42 -38.18148 145.01317 2597 ft 110 kts 146°
2026-04-23 07:43 -38.18800 145.01834 2597 ft 110 kts 146°
2026-04-23 07:43 -38.19532 145.02087 2600 ft 113 kts 186°
2026-04-23 07:43 -38.20223 145.01632 2604 ft 115 kts 229°
2026-04-23 07:43 -38.20587 145.00731 2603 ft 115 kts 248°
2026-04-23 07:44 -38.20798 144.99762 2601 ft 114 kts 276°
2026-04-23 07:44 -38.20470 144.98875 2600 ft 112 kts 319°
2026-04-23 07:44 -38.19785 144.98491 2603 ft 108 kts 360°
2026-04-23 07:44 -38.19085 144.98753 2602 ft 106 kts 38°
2026-04-23 07:45 -38.18680 144.99512 2605 ft 105 kts 75°
2026-04-23 07:45 -38.18738 145.00425 2603 ft 108 kts 110°
2026-04-23 07:45 -38.18952 145.01330 2599 ft 107 kts 89°
2026-04-23 07:45 -38.18698 145.02200 2591 ft 107 kts 51°
2026-04-23 07:46 -38.18061 145.02666 2586 ft 109 kts 12°
2026-04-23 07:46 -38.17324 145.02492 2585 ft 112 kts 332°
2026-04-23 07:46 -38.16851 145.01719 2585 ft 115 kts 289°
2026-04-23 07:46 -38.16912 145.00724 2587 ft 115 kts 247°
2026-04-23 07:47 -38.17244 144.99800 2591 ft 115 kts 247°
2026-04-23 07:47 -38.17570 144.98865 2590 ft 116 kts 247°
2026-04-23 07:47 -38.17897 144.97929 2591 ft 116 kts 247°
2026-04-23 07:47 -38.18226 144.96992 2593 ft 116 kts 245°
2026-04-23 07:48 -38.18805 144.96319 2584 ft 115 kts 198°
2026-04-23 07:48 -38.19575 144.96333 2585 ft 111 kts 155°
2026-04-23 07:48 -38.20127 144.96971 2585 ft 107 kts 115°
2026-04-23 07:48 -38.20221 144.97882 2587 ft 105 kts 77°
2026-04-23 07:49 -38.19942 144.98735 2587 ft 105 kts 66°
2026-04-23 07:49 -38.19649 144.99584 2590 ft 105 kts 66°
2026-04-23 07:49 -38.19353 145.00433 2590 ft 105 kts 66°
2026-04-23 07:49 -38.19057 145.01282 2591 ft 105 kts 66°
2026-04-23 07:50 -38.18743 145.02125 2589 ft 106 kts 57°
2026-04-23 07:50 -38.18145 145.02644 2582 ft 108 kts 17°
2026-04-23 07:50 -38.17415 145.02555 2588 ft 111 kts 338°
2026-04-23 07:50 -38.16887 145.01849 2587 ft 114 kts 295°
2026-04-23 07:51 -38.16871 145.00856 2586 ft 115 kts 251°
2026-04-23 07:51 -38.17198 144.99928 2584 ft 115 kts 246°
2026-04-23 07:51 -38.17524 144.98996 2587 ft 116 kts 247°
2026-04-23 07:51 -38.17851 144.98061 2589 ft 116 kts 247°
2026-04-23 07:52 -38.18178 144.97125 2591 ft 116 kts 247°
2026-04-23 07:52 -38.18698 144.96375 2575 ft 115 kts 205°
2026-04-23 07:52 -38.19470 144.96286 2585 ft 112 kts 161°
2026-04-23 07:52 -38.20074 144.96855 2583 ft 108 kts 120°
2026-04-23 07:53 -38.20239 144.97753 2583 ft 105 kts 83°
2026-04-23 07:53 -38.19985 144.98616 2586 ft 104 kts 66°
2026-04-23 07:53 -38.19690 144.99464 2588 ft 105 kts 66°
2026-04-23 07:53 -38.19395 145.00312 2589 ft 105 kts 66°
2026-04-23 07:54 -38.19103 145.01151 2593 ft 105 kts 66°
2026-04-23 07:54 -38.18800 145.02001 2593 ft 106 kts 62°
2026-04-23 07:54 -38.18253 145.02601 2587 ft 107 kts 22°
2026-04-23 07:54 -38.17512 145.02607 2578 ft 111 kts 343°
2026-04-23 07:55 -38.16935 145.01974 2588 ft 114 kts 301°
2026-04-23 07:55 -38.16839 145.00988 2581 ft 116 kts 257°
2026-04-23 07:55 -38.17155 145.00051 2584 ft 115 kts 246°
2026-04-23 07:55 -38.17481 144.99118 2592 ft 116 kts 247°
2026-04-23 07:56 -38.17805 144.98192 2592 ft 116 kts 247°
2026-04-23 07:56 -38.18133 144.97253 2594 ft 116 kts 247°
2026-04-23 07:56 -38.18604 144.96440 2579 ft 116 kts 210°
2026-04-23 07:56 -38.19372 144.96258 2587 ft 113 kts 167°
2026-04-23 07:57 -38.20015 144.96752 2583 ft 109 kts 126°
2026-04-23 07:57 -38.20245 144.97629 2586 ft 105 kts 88°
2026-04-23 07:57 -38.20026 144.98501 2585 ft 104 kts 65°
2026-04-23 07:57 -38.19731 144.99346 2589 ft 105 kts 66°
2026-04-23 07:58 -38.19437 145.00191 2589 ft 104 kts 66°
2026-04-23 07:58 -38.19143 145.01035 2591 ft 104 kts 66°
2026-04-23 07:58 -38.18846 145.01883 2593 ft 105 kts 65°
2026-04-23 07:58 -38.18353 145.02548 2585 ft 106 kts 28°
2026-04-23 07:59 -38.17621 145.02650 2587 ft 110 kts 349°
2026-04-23 07:59 -38.16995 145.02101 2589 ft 114 kts 308°
2026-04-23 07:59 -38.16815 145.01130 2587 ft 117 kts 263°
2026-04-23 07:59 -38.17110 145.00174 2585 ft 116 kts 246°
2026-04-23 08:00 -38.17438 144.99242 2589 ft 117 kts 247°
2026-04-23 08:00 -38.17768 144.98296 2592 ft 117 kts 247°
2026-04-23 08:00 -38.18100 144.97347 2594 ft 117 kts 247°
2026-04-23 08:00 -38.18542 144.96493 2583 ft 117 kts 215°
2026-04-23 08:01 -38.19296 144.96244 2580 ft 113 kts 171°
2026-04-23 08:01 -38.19966 144.96680 2580 ft 108 kts 129°
2026-04-23 08:01 -38.20244 144.97532 2583 ft 105 kts 91°
2026-04-23 08:01 -38.20059 144.98412 2588 ft 103 kts 65°
2026-04-23 08:02 -38.19765 144.99248 2589 ft 104 kts 66°
2026-04-23 08:02 -38.19473 145.00089 2590 ft 104 kts 66°
2026-04-23 08:02 -38.19180 145.00928 2596 ft 104 kts 66°
2026-04-23 08:02 -38.18886 145.01773 2595 ft 105 kts 66°
2026-04-23 08:03 -38.18440 145.02489 2586 ft 106 kts 33°
2026-04-23 08:03 -38.17720 145.02675 2585 ft 109 kts 355°
2026-04-23 08:03 -38.17058 145.02206 2583 ft 113 kts 314°
2026-04-23 08:03 -38.16805 145.01267 2585 ft 117 kts 269°
2026-04-23 08:04 -38.17064 145.00302 2585 ft 116 kts 246°
2026-04-23 08:04 -38.17390 144.99378 2590 ft 116 kts 247°
2026-04-23 08:04 -38.17718 144.98440 2589 ft 116 kts 247°
2026-04-23 08:04 -38.18046 144.97501 2589 ft 117 kts 247°
2026-04-23 08:05 -38.18437 144.96603 2579 ft 117 kts 224°
2026-04-23 08:05 -38.19170 144.96234 2584 ft 114 kts 178°
2026-04-23 08:05 -38.19882 144.96573 2586 ft 109 kts 136°
2026-04-23 08:05 -38.20234 144.97391 2585 ft 106 kts 97°
2026-04-23 08:06 -38.20104 144.98292 2583 ft 104 kts 65°
2026-04-23 08:06 -38.19804 144.99135 2585 ft 105 kts 66°
2026-04-23 08:06 -38.19510 144.99982 2587 ft 105 kts 66°
2026-04-23 08:06 -38.19215 145.00828 2592 ft 105 kts 66°
2026-04-23 08:07 -38.18920 145.01676 2590 ft 105 kts 66°
2026-04-23 08:07 -38.18507 145.02432 2588 ft 106 kts 37°
2026-04-23 08:07 -38.17806 145.02686 2588 ft 109 kts 359°
2026-04-23 08:07 -38.17118 145.02289 2586 ft 112 kts 317°
2026-04-23 08:08 -38.16806 145.01387 2586 ft 116 kts 274°
2026-04-23 08:08 -38.17023 145.00414 2590 ft 115 kts 245°
2026-04-23 08:08 -38.17353 144.99485 2593 ft 116 kts 247°
2026-04-23 08:08 -38.17681 144.98548 2593 ft 116 kts 247°
2026-04-23 08:09 -38.18010 144.97607 2594 ft 117 kts 247°
2026-04-23 08:09 -38.18376 144.96689 2587 ft 117 kts 230°
2026-04-23 08:09 -38.19069 144.96242 2584 ft 115 kts 184°
2026-04-23 08:09 -38.19807 144.96497 2587 ft 110 kts 141°
2026-04-23 08:10 -38.20195 144.97285 2587 ft 106 kts 96°
2026-04-23 08:10 -38.20075 144.98187 2585 ft 104 kts 65°
2026-04-23 08:10 -38.19482 144.99873 2590 ft 105 kts 66°
2026-04-23 08:11 -38.19190 145.00720 2590 ft 105 kts 66°
2026-04-23 08:11 -38.18897 145.01571 2594 ft 105 kts 66°
2026-04-23 08:11 -38.18603 145.02425 2596 ft 105 kts 67°
2026-04-23 08:11 -38.18309 145.03278 2597 ft 105 kts 66°
2026-04-23 08:12 -38.18015 145.04135 2598 ft 106 kts 67°
2026-04-23 08:12 -38.17720 145.04990 2595 ft 105 kts 67°
2026-04-23 08:12 -38.17427 145.05840 2595 ft 105 kts 67°
2026-04-23 08:12 -38.17134 145.06693 2595 ft 106 kts 67°
2026-04-23 08:13 -38.16843 145.07538 2597 ft 106 kts 67°
2026-04-23 08:13 -38.16547 145.08396 2595 ft 106 kts 67°
2026-04-23 08:13 -38.16250 145.09253 2597 ft 106 kts 67°
2026-04-23 08:13 -38.15956 145.10110 2592 ft 105 kts 67°
2026-04-23 08:14 -38.15617 145.10941 2584 ft 108 kts 51°
2026-04-23 08:14 -38.14966 145.11434 2534 ft 115 kts 17°
2026-04-23 08:14 -38.14178 145.11434 2459 ft 111 kts 359°
2026-04-23 08:14 -38.13425 145.11364 2389 ft 106 kts 359°
2026-04-23 08:15 -38.12696 145.11299 2318 ft 104 kts
2026-04-23 08:15 -38.11978 145.11234 2250 ft 103 kts
2026-04-23 08:15 -38.11261 145.11171 2181 ft 103 kts
2026-04-23 08:15 -38.10547 145.11108 2117 ft 103 kts
2026-04-23 08:16 -38.09831 145.11045 2052 ft 103 kts
2026-04-23 08:16 -38.09114 145.10983 1972 ft 103 kts
2026-04-23 08:16 -38.08397 145.10920 1897 ft 103 kts
2026-04-23 08:16 -38.07684 145.10857 1833 ft 102 kts
2026-04-23 08:17 -38.06987 145.10795 1791 ft 99 kts
2026-04-23 08:17 -38.06313 145.10734 1781 ft 95 kts
2026-04-23 08:17 -38.05640 145.10676 1675 ft 102 kts
2026-04-23 08:17 -38.04903 145.10619 1427 ft 108 kts
2026-04-23 08:18 -38.04148 145.10556 1213 ft 107 kts
2026-04-23 08:18 -38.03425 145.10491 1075 ft 102 kts
2026-04-23 08:18 -38.02727 145.10430 941 ft 99 kts
2026-04-23 08:18 -38.02046 145.10369 809 ft 97 kts
2026-04-23 08:19 -38.01383 145.10436 846 ft 99 kts 24°
2026-04-23 08:19 -38.00727 145.10735 1018 ft 94 kts 20°
2026-04-23 08:19 -38.00050 145.10965 969 ft 104 kts 19°
2026-04-23 08:19 -37.99345 145.11166 988 ft 104 kts 15°
2026-04-23 08:20 -37.98627 145.11308 989 ft 106 kts 12°
2026-04-23 08:20 -37.97898 145.11448 981 ft 108 kts 12°
2026-04-23 08:20 -37.97200 145.11592 999 ft 96 kts 14°
2026-04-23 08:20 -37.96523 145.11677 906 ft 101 kts 354°
2026-04-23 08:21 -37.95950 145.11227 789 ft 94 kts 309°
2026-04-23 08:21 -37.95809 145.10503 653 ft 82 kts 262°
2026-04-23 08:21 -37.96126 145.09949 458 ft 79 kts 205°
2026-04-23 08:21 -37.96639 145.09876 270 ft 74 kts 172°
2026-04-23 08:22 -37.97158 145.09926 125 ft 75 kts 174°
2026-04-23 08:22 -37.97645 145.09965 48 ft 59 kts 171°
2026-04-23 08:22 -37.97985 145.10001 41 ft 38 kts 178°
2026-04-23 08:22 -37.98102 145.09969 41 ft 10 kts 233°
2026-04-23 08:23 -37.98142 145.09906 42 ft 7 kts 258°
2026-04-23 08:23 -37.98077 145.09887 42 ft 17 kts 357°
2026-04-23 08:23 -37.97969 145.09877 44 ft 14 kts 356°
2026-04-23 08:23 -37.97863 145.09869 44 ft 16 kts 356°
2026-04-23 08:24 -37.97766 145.09832 46 ft 13 kts 277°
2026-04-23 08:24 -37.97771 145.09697 47 ft 16 kts 266°
2026-04-23 08:24 -37.97767 145.09569 47 ft 13 kts 279°
2026-04-23 08:24 -37.97778 145.09490 45 ft 10 kts 188°
2026-04-23 08:25 -37.97844 145.09502 43 ft 10 kts 181°
2026-04-23 08:25 -37.97885 145.09484 45 ft 1 kts 319°
2026-04-23 08:25 -37.97874 145.09493 44 ft 0 kts 97°